Temperature
22 22 22 22 23 23 21 20 19 20 21 21 21 21 23 25 25 25 25 24 24 24 23 23 23 22 22 21 21 20 20 20 19 19 18 17 17 16 16 15 15 15 14 14
22 23 23 23 23 23 22 22 21 21 21 21 21 23 23 24 24 24 25 25 25 24 24 23 23 22 22 22 21 21 20 20 19 19 18 18 17 17 16 16 15 15 15 14
20 22 22 21 22 22 21 20 20 20 19 19 20 20 21 23 24 24 25 25 25 24 24 24 23 23 22 22 21 21 20 20 19 19 18 18 17 17 16 16 16 15 15 15
18 20 21 21 21 22 20 19 19 19 19 19 19 20 21 22 23 24 24 24 24 24 24 24 24 23 23 22 21 21 20 20 19 19 18 18 17 17 17 16 16 16 15 15
17 19 20 21 20 20 19 18 17 17 18 19 20 21 20 21 22 23 23 23 24 24 24 23 23 23 22 22 22 21 20 20 20 19 19 18 18 17 17 16 16 15 15 15
17 19 19 20 20 20 19 17 17 17 17 18 19 17 17 19 20 22 22 22 22 22 23 23 22 22 22 22 21 21 21 21 20 19 19 18 18 17 17 16 16 15 15 15
17 17 18 18 19 20 19 17 17 17 18 18 17 16 17 18 19 20 21 21 21 21 21 21 21 21 21 21 20 20 20 20 19 19 18 18 17 17 16 16 15 15 15 15
16 17 17 18 17 18 17 17 17 18 18 18 17 17 18 18 18 19 19 20 20 20 20 20 20 20 20 19 19 19 19 18 18 18 17 17 17 16 16 15 15 15 15 15
16 16 17 17 17 18 19 18 18 18 18 18 17 17 17 17 17 17 18 18 18 18 18 18 18 18 18 18 18 18 17 17 17 17 16 16 16 15 15 15 15 14 14 14
15 16 16 17 18 18 18 18 18 18 17 17 17 16 16 16 16 16 16 16 16 17 17 16 16 16 16 16 16 16 16 15 15 15 15 15 14 14 14 14 14 14 14 13
15 15 15 16 17 18 18 18 18 17 17 17 17 16 16 16 15 15 15 15 15 15 15 14 14 14 14 14 14 14 14 13 13 13 13 13 13 13 13 13 13 13 13 13
15 15 14 16 18 18 18 18 18 17 17 16 16 16 16 15 15 15 14 14 14 14 13 13 13 13 13 13 13 13 12 12 12 12 12 12 12 12 12 12 12 12 12 12
19 18 18 18 18 18 17 17 17 17 16 16 16 15 15 15 14 14 14 13 13 13 12 12 12 12 12 12 12 12 11 11 11 11 11 11 11 11 11 11 11 11 12 12
19 18 17 17 17 17 17 16 16 16 15 15 15 15 14 14 14 13 13 12 12 12 12 11 11 11 11 11 11 11 11 10 10 10 10 10 10 10 10 10 10 10 11 11
18 18 17 17 16 16 16 16 15 15 15 14 14 14 14 13 13 12 12 12 11 11 11 11 11 10 10 10 10 10 10 10 10 9 9 9 9 9 9 9 9 9 10 10
16 16 16 16 16 15 15 15 15 14 14 14 13 13 13 12 12 12 11 11 11 11 11 10 10 10 10 10 10 10 10 9 9 9 9 8 8 8 8 8 8 8 9 9
15 15 15 15 15 15 15 14 14 14 14 13 13 13 12 12 12 11 11 11 11 11 10 10 10 10 10 10 9 9 9 9 8 8 8 8 7 7 7 7 8 8 8 8
15 15 15 15 15 14 14 14 14 13 13 13 12 12 12 11 11 11 11 11 11 10 10 10 10 10 9 9 9 9 8 8 7 7 7 7 7 6 6 7 7 7 7 7
15 15 15 14 14 14 13 13 13 13 12 12 12 12 11 11 11 11 11 11 10 10 10 10 10 9 9 9 8 8 7 7 7 6 6 6 6 6 6 6 6 6 6 7
14 14 14 14 13 13 13 13 12 12 12 12 12 11 11 11 11 11 11 10 10 10 10 9 9 9 8 8 7 7 6 6 5 5 5 5 5 5 5 5 5 5 6 6
13 13 13 13 13 12 12 12 12 12 12 11 11 11 11 11 11 11 11 10 10 9 9 9 8 8 8 7 6 6 5 5 4 4 4 4 4 4 4 5 5 5 5 6
13 12 12 12 12 12 12 12 11 11 11 11 11 11 11 11 11 10 10 10 9 9 8 8 8 7 6 6 5 5 4 4 3 3 3 3 3 3 4 4 4 4 5 5
12 12 12 12 11 11 11 11 11 11 11 11 11 11 11 10 10 10 9 9 8 8 8 7 6 6 5 5 4 4 3 3 3 3 2 2 3 3 3 3 4 4 4 4
11 11 11 11 11 11 11 11 11 11 11 11 10 10 10 10 9 9 9 8 8 7 6 6 5 4 4 3 3 3 2 2 2 2 2 2 2 2 2 3 3 3 4 4
11 11 11 11 11 11 11 10 10 10 10 10 10 9 9 9 8 8 8 7 7 6 5 5 4 3 3 2 2 2 2 1 1 1 1 1 2 2 2 2 2 3 3 3
10 10 10 10 10 10 10 10 10 9 9 9 9 8 8 8 7 7 7 6 5 5 4 3 3 2 2 1 1 1 1 1 1 1 1 1 1 1 2 2 2 2 3 3
10 9 9 9 9 9 9 9 9 8 8 8 8 7 7 7 6 6 6 5 4 3 3 2 2 1 1 1 1 0 0 0 0 0 1 1 1 1 1 2 2 2 2 3
Wind_Speed
5 6 4 5 5 3 2 6 6 6 7 9 8 8 8 8 8 9 10 11 14 14 13 12 12 12 12 12 12 11 11 12 12 11 10 10 9 9 9 9 9 9 8 8
4 4 3 4 4 2 1 1 2 4 7 7 2 1 1 4 8 10 11 12 13 13 13 14 15 14 13 13 12 11 12 13 12 10 10 10 10 10 9 9 9 8 9 9
4 5 2 4 5 3 3 4 1 2 4 3 5 4 1 1 5 7 8 9 11 13 15 15 16 16 16 15 12 12 13 12 11 11 11 11 11 10 10 10 9 9 9 9
1 3 3 6 2 6 10 7 6 2 3 5 5 2 4 4 3 3 3 4 6 8 10 11 12 12 13 11 12 13 12 12 11 11 12 11 10 11 11 9 9 9 10 10
3 2 4 3 2 1 4 4 6 5 7 7 5 7 9 9 7 5 4 2 2 4 5 6 7 9 9 10 11 11 12 12 12 12 12 11 11 11 10 8 9 8 7 10
3 2 5 5 4 1 7 2 4 3 5 7 7 5 5 9 8 8 7 5 3 2 3 1 3 4 8 9 9 12 13 13 11 11 11 12 12 11 8 8 10 9 9 9
3 3 4 4 5 2 4 5 3 0 2 4 4 3 1 5 7 8 8 7 6 5 5 3 2 3 3 3 8 11 9 8 8 10 11 11 10 8 8 8 8 9 10 10
3 2 6 3 1 4 7 5 4 3 3 4 5 5 4 6 8 10 10 11 9 8 8 7 7 5 4 3 5 4 3 4 6 7 8 8 8 8 7 8 9 9 9 10
6 6 4 3 5 4 6 6 4 5 4 7 8 6 6 7 8 9 10 11 10 10 10 11 10 8 7 7 7 5 3 2 3 3 4 4 6 8 7 7 8 9 9 10
2 2 1 1 1 3 5 5 5 6 7 8 9 8 8 7 7 8 9 9 9 10 11 10 9 9 8 7 7 7 6 5 5 4 5 4 4 5 6 7 8 9 9 11
4 3 2 1 2 5 6 7 9 10 10 10 11 9 8 7 6 6 7 7 7 8 8 8 8 7 7 7 7 7 6 6 6 5 6 6 6 7 8 9 10 11 11 11
8 10 8 7 6 7 9 8 10 12 10 9 9 8 7 6 5 5 6 6 7 7 6 6 7 7 7 6 6 5 5 5 5 5 6 6 7 9 12 14 17 19 19 17
8 9 8 7 7 8 8 9 10 11 10 9 7 7 7 4 4 4 5 6 6 5 4 5 6 6 6 6 5 5 5 5 5 6 6 7 7 8 10 12 15 17 18 18
13 12 9 8 9 10 11 11 11 10 9 7 6 6 5 5 4 5 4 3 3 4 4 4 4 5 6 5 4 5 5 6 7 6 7 7 8 8 8 9 11 10 12 15
10 11 11 11 12 11 11 11 11 9 7 7 6 6 6 5 4 3 2 3 4 4 4 4 4 5 6 5 4 5 5 5 6 6 7 7 8 8 8 10 9 10 9 10
13 13 14 14 13 11 11 11 9 7 6 5 5 4 3 3 2 2 3 3 3 4 4 3 4 6 6 5 5 5 6 10 9 7 7 8 8 9 9 10 10 10 9 9
12 10 11 11 10 10 9 7 7 5 5 4 3 2 2 2 3 4 5 5 4 4 4 4 5 5 5 5 5 5 6 8 11 9 7 8 8 9 9 10 10 10 10 11
11 9 9 9 8 8 7 6 5 5 3 2 2 1 1 1 3 5 6 6 5 5 5 5 5 4 4 5 5 5 6 7 7 7 8 8 9 9 9 9 10 10 10 10
10 9 8 8 7 7 6 5 4 3 1 1 2 2 3 4 5 6 5 4 5 5 6 5 5 4 5 7 8 5 6 7 7 7 8 10 10 9 9 10 10 10 9 9
8 8 8 8 8 6 5 3 2 1 3 3 3 4 5 6 6 6 4 3 4 4 3 3 3 4 5 7 9 5 7 7 8 8 8 9 10 10 10 11 11 10 9 8
8 8 8 7 5 4 2 1 1 3 5 5 4 6 6 7 6 5 2 3 5 3 2 3 3 4 5 7 8 6 7 7 8 8 9 9 10 10 11 11 10 9 8 7
6 6 6 4 3 3 3 3 4 5 6 6 6 6 5 6 4 3 2 2 3 2 2 2 3 6 8 8 5 6 7 7 8 8 8 9 9 10 11 11 10 9 8 7
3 3 3 2 2 4 5 6 6 6 5 5 5 5 4 4 2 1 2 2 1 2 3 3 5 9 9 6 6 6 7 8 8 8 9 9 9 10 10 11 10 9 7 7
2 3 3 4 4 4 6 7 6 4 3 4 4 3 1 2 3 2 1 2 4 5 3 4 7 9 8 5 6 7 7 8 8 8 9 9 9 9 10 10 10 9 8 8
4 4 4 5 4 4 5 4 4 4 4 3 4 4 3 2 2 2 3 4 6 5 3 6 9 9 6 5 6 7 7 7 9 9 8 9 9 9 9 9 10 9 9 8
4 3 3 3 2 2 2 2 2 3 3 3 3 3 4 3 4 4 4 5 6 6 5 4 5 6 5 6 7 7 7 8 9 9 9 9 10 10 9 10 11 9 9 9
5 4 4 4 4 4 3 2 2 1 1 1 2 2 3 3 4 5 5 5 5 5 4 4 5 5 5 6 7 7 7 8 8 8 9 9 9 9 10 11 9 9 9 9
Wind_Direction
230 231 205 225 239 231 205 192 197 258 266 259 242 215 209 198 181 170 172 176 180 182 186 186 186 188 190 192 191 186 184 191 200 202 201 203 206 209 210 210 214 214 218 225
304 273 248 277 279 289 315 297 256 279 275 272 224 95 144 171 167 172 181 186 187 186 185 188 191 193 193 196 195 187 190 200 201 198 201 205 208 209 211 216 219 216 218 223
275 292 28 289 250 191 77 12 23 188 261 342 57 64 25 199 167 176 183 186 191 192 192 195 196 193 195 198 191 188 196 200 197 196 202 208 210 208 214 218 218 221 225 224
222 16 268 259 290 117 102 54 23 29 4 54 89 103 42 29 81 107 144 169 191 204 209 207 201 197 197 189 186 192 197 200 198 197 204 207 207 212 217 215 216 222 226 226
132 196 269 299 341 132 125 52 6 11 29 39 41 48 28 11 29 55 64 85 192 207 209 209 211 208 193 192 191 194 202 206 204 200 204 205 210 217 217 214 220 221 222 225
133 166 234 244 282 211 104 72 321 356 32 31 39 52 356 349 6 26 32 32 35 37 53 42 244 201 189 201 199 208 212 212 206 201 204 209 215 218 216 215 224 225 231 229
154 192 252 261 299 57 127 217 240 50 70 66 86 148 227 5 20 16 25 28 32 46 47 8 355 98 160 203 224 230 226 216 210 209 212 215 217 218 216 218 225 230 238 241
130 185 244 235 359 177 186 173 172 156 154 125 120 112 71 47 42 34 33 31 35 45 36 23 30 55 51 332 285 272 229 223 227 227 227 225 221 224 221 220 228 238 244 254
180 212 242 187 196 192 149 152 168 179 178 141 116 96 79 63 51 43 40 35 33 40 35 28 31 43 37 1 5 18 18 330 292 279 262 246 229 231 232 228 233 242 243 252
161 240 212 170 142 144 143 144 148 139 131 116 109 99 84 70 57 48 40 36 35 42 41 29 24 35 29 18 29 36 24 3 347 330 308 289 265 248 243 242 243 246 247 252
145 165 102 296 154 133 125 115 108 103 101 106 104 96 88 74 59 49 41 34 38 42 42 31 27 27 21 25 33 30 17 4 349 334 316 305 291 269 258 251 249 249 253 252
192 186 167 188 178 138 125 123 115 106 91 87 94 94 84 72 58 52 44 35 33 32 36 26 23 18 7 11 28 31 8 348 334 325 316 309 304 302 283 271 270 261 255 254
152 147 146 147 140 128 121 117 108 104 102 94 85 88 85 72 52 47 42 38 35 31 32 26 22 14 358 2 18 17 349 328 320 316 313 309 305 302 304 302 291 281 271 264
118 115 107 112 114 113 112 107 99 93 90 92 87 80 76 66 51 45 36 25 33 33 22 12 7 347 330 341 355 343 328 320 318 308 305 303 301 299 297 300 305 301 292 280
96 104 116 112 100 97 97 94 88 83 80 75 75 76 76 72 54 26 357 4 23 13 352 344 340 317 313 323 328 316 310 305 303 301 300 299 299 298 297 297 295 293 294 294
99 95 96 93 92 91 90 90 92 89 86 82 75 76 85 89 59 359 337 347 348 320 308 311 305 298 302 310 316 311 306 306 311 305 303 305 305 303 302 300 297 293 290 289
101 97 98 97 96 94 96 100 104 101 92 88 91 94 69 43 1 327 308 303 291 282 279 282 286 293 306 313 310 305 304 308 312 311 303 301 302 302 301 300 298 295 292 290
103 112 117 116 112 104 95 88 87 90 93 90 74 48 355 306 286 281 282 292 306 311 299 292 294 309 323 327 322 310 306 301 302 303 303 302 303 301 300 300 300 300 299 297
104 107 106 104 104 103 98 93 91 88 64 7 332 285 266 264 268 271 279 296 305 300 296 309 332 343 335 329 333 311 310 310 311 311 312 312 311 308 307 304 301 301 304 302
88 88 86 84 84 91 94 93 82 19 313 304 300 288 280 276 272 276 287 289 275 268 279 320 340 342 333 326 333 318 318 319 319 319 319 318 315 312 310 306 302 302 303 302
74 74 76 75 71 71 73 60 352 307 298 296 280 266 263 269 278 284 285 296 299 306 333 355 3 343 332 331 332 329 328 328 327 324 323 322 319 318 317 315 312 312 312 311
62 63 60 55 40 357 320 307 296 292 293 290 282 279 280 288 299 314 314 268 284 335 28 22 1 351 351 348 342 338 336 334 331 328 326 325 325 326 327 327 324 323 324 327
51 44 25 355 315 292 299 300 296 293 286 286 290 293 297 298 277 239 307 316 335 57 64 33 9 7 6 360 349 345 341 340 337 333 330 330 331 330 331 331 332 332 333 340
345 320 301 295 304 311 304 300 304 302 301 310 318 330 1 360 359 16 101 40 59 76 64 29 18 11 8 1 352 347 344 341 337 334 333 336 337 336 337 339 341 345 348 351
316 312 313 321 320 306 293 305 331 342 351 3 10 13 21 54 84 75 69 65 69 66 42 21 18 14 12 358 355 352 349 347 344 339 338 340 340 340 341 344 347 348 350 352
329 319 312 308 301 311 328 347 352 353 19 29 14 12 26 48 66 71 71 64 58 50 37 20 9 7 3 358 356 354 352 348 347 347 345 345 345 346 346 348 348 349 347 349
352 354 354 353 350 354 359 8 9 358 20 66 36 26 38 49 59 71 76 63 51 42 33 22 14 8 4 0 357 356 356 354 353 352 352 350 349 349 348 347 348 348 350 352
Height
1495 1492 1493 1494 1492 1492 1497 1502 1508 1502 1497 1488 1481 1478 1477 1478 1480 1483 1486 1489 1492 1494 1497 1500 1503 1505 1507 1509 1511 1512 1513 1514 1515 1516 1517 1517 1517 1517 1517 1516 1516 1516 1515 1514
1495 1490 1490 1491 1488 1487 1489 1490 1492 1493 1492 1481 1476 1477 1478 1479 1480 1482 1484 1487 1489 1491 1494 1496 1498 1500 1502 1504 1506 1507 1508 1509 1510 1511 1512 1512 1512 1513 1512 1512 1512 1511 1510 1509
1505 1494 1493 1501 1491 1487 1491 1491 1491 1496 1492 1482 1479 1480 1481 1481 1481 1482 1483 1485 1487 1489 1490 1492 1494 1495 1497 1499 1501 1502 1503 1504 1505 1506 1507 1507 1508 1508 1507 1507 1507 1506 1505 1504
1506 1503 1510 1498 1484 1484 1490 1495 1492 1490 1487 1482 1483 1484 1483 1483 1483 1482 1483 1485 1486 1487 1488 1489 1491 1492 1493 1495 1496 1497 1498 1499 1500 1501 1501 1502 1502 1502 1502 1502 1501 1500 1500 1499
1508 1511 1504 1492 1487 1487 1491 1498 1494 1492 1487 1484 1483 1482 1485 1486 1485 1484 1483 1484 1484 1485 1485 1486 1487 1488 1489 1490 1491 1492 1492 1493 1494 1494 1495 1495 1495 1495 1496 1496 1495 1495 1494 1493
1506 1510 1510 1495 1484 1482 1488 1501 1495 1491 1488 1486 1484 1491 1494 1489 1487 1485 1484 1483 1483 1483 1483 1483 1483 1484 1485 1485 1486 1486 1487 1487 1488 1489 1489 1489 1489 1489 1490 1490 1489 1488 1487 1486
1504 1508 1499 1487 1483 1483 1499 1499 1491 1489 1488 1486 1488 1492 1494 1490 1488 1487 1485 1483 1483 1482 1481 1480 1480 1480 1480 1480 1481 1482 1482 1483 1483 1483 1483 1483 1484 1484 1483 1483 1482 1481 1480 1479
1504 1507 1502 1483 1484 1486 1487 1485 1486 1487 1488 1488 1489 1490 1491 1490 1488 1487 1485 1484 1483 1481 1480 1479 1479 1478 1477 1477 1477 1478 1478 1478 1478 1478 1478 1478 1478 1477 1477 1476 1475 1474 1472 1471
1492 1493 1482 1479 1480 1481 1481 1482 1484 1486 1489 1489 1489 1490 1491 1491 1489 1488 1487 1485 1484 1483 1481 1479 1478 1477 1477 1476 1475 1475 1474 1473 1473 1473 1473 1472 1472 1471 1470 1469 1467 1466 1464 1462
1485 1483 1481 1480 1481 1482 1482 1483 1486 1488 1489 1489 1490 1491 1492 1491 1490 1489 1488 1486 1485 1483 1481 1480 1479 1478 1477 1475 1474 1473 1472 1471 1470 1469 1468 1467 1465 1464 1463 1461 1459 1457 1456 1454
1483 1482 1482 1482 1482 1482 1484 1486 1487 1488 1490 1490 1491 1492 1492 1492 1491 1490 1489 1488 1486 1484 1483 1481 1479 1478 1476 1475 1473 1471 1470 1468 1466 1464 1462 1460 1459 1457 1455 1453 1452 1450 1447 1445
1473 1472 1476 1479 1480 1483 1484 1486 1487 1488 1490 1491 1492 1492 1492 1492 1492 1491 1490 1489 1487 1485 1483 1481 1479 1477 1475 1473 1471 1469 1467 1465 1462 1460 1458 1455 1452 1449 1447 1445 1443 1440 1438 1436
1460 1466 1471 1475 1479 1482 1484 1487 1488 1489 1490 1492 1493 1493 1494 1493 1493 1492 1490 1489 1487 1485 1483 1481 1479 1476 1474 1472 1469 1467 1464 1462 1459 1456 1453 1450 1446 1442 1438 1435 1433 1431 1428 1426
1461 1466 1472 1476 1479 1482 1485 1487 1489 1490 1492 1493 1494 1494 1494 1493 1492 1491 1490 1488 1486 1484 1482 1479 1477 1475 1472 1470 1467 1464 1461 1458 1455 1451 1448 1444 1441 1437 1433 1428 1424 1421 1419 1416
1466 1469 1473 1477 1480 1483 1486 1488 1490 1492 1493 1494 1494 1494 1493 1492 1491 1490 1488 1487 1485 1482 1480 1477 1475 1472 1470 1467 1464 1461 1457 1454 1450 1446 1442 1439 1435 1431 1427 1422 1417 1413 1410 1407
1471 1473 1476 1479 1482 1485 1487 1489 1491 1493 1493 1494 1494 1493 1492 1491 1490 1488 1486 1484 1482 1480 1477 1474 1472 1469 1467 1463 1460 1456 1453 1449 1445 1441 1436 1432 1428 1424 1419 1414 1410 1405 1402 1399
1474 1477 1479 1482 1485 1487 1489 1491 1492 1493 1493 1493 1492 1491 1490 1489 1487 1486 1484 1482 1479 1476 1474 1471 1468 1466 1463 1459 1456 1451 1447 1443 1439 1434 1430 1425 1421 1416 1412 1407 1402 1398 1394 1391
1478 1481 1483 1485 1486 1488 1490 1491 1492 1492 1492 1491 1490 1489 1487 1486 1484 1482 1480 1478 1476 1473 1470 1468 1465 1462 1458 1455 1451 1446 1442 1437 1433 1428 1423 1418 1414 1409 1405 1400 1395 1391 1387 1383
1482 1484 1485 1487 1488 1489 1490 1490 1491 1491 1490 1489 1487 1486 1484 1483 1481 1479 1477 1474 1472 1469 1466 1464 1461 1457 1454 1450 1445 1441 1436 1431 1426 1421 1417 1412 1407 1402 1398 1393 1388 1384 1379 1376
1485 1486 1487 1488 1489 1489 1490 1490 1489 1488 1487 1486 1484 1483 1481 1479 1477 1475 1473 1470 1468 1465 1462 1459 1456 1452 1448 1444 1439 1435 1430 1425 1420 1415 1410 1405 1400 1395 1391 1386 1381 1377 1373 1369
1486 1487 1488 1488 1489 1489 1489 1488 1487 1486 1484 1483 1481 1479 1477 1475 1473 1471 1468 1466 1464 1461 1458 1455 1451 1447 1443 1438 1434 1429 1424 1420 1415 1410 1405 1400 1395 1390 1385 1380 1376 1371 1368 1364
1488 1488 1488 1488 1487 1487 1486 1485 1484 1482 1481 1479 1477 1475 1473 1471 1469 1467 1464 1462 1460 1457 1454 1450 1446 1442 1438 1433 1429 1424 1419 1415 1410 1405 1401 1396 1391 1386 1381 1376 1372 1368 1364 1361
1488 1488 1487 1486 1485 1484 1483 1482 1480 1479 1477 1475 1473 1471 1469 1467 1465 1463 1461 1458 1456 1453 1449 1446 1442 1438 1433 1429 1424 1420 1415 1411 1406 1402 1397 1393 1388 1384 1379 1374 1369 1365 1362 1360
1487 1486 1485 1484 1482 1481 1480 1478 1477 1475 1473 1472 1470 1468 1466 1464 1462 1460 1457 1455 1452 1449 1445 1441 1438 1434 1430 1425 1421 1416 1412 1408 1403 1399 1395 1391 1386 1382 1378 1373 1368 1364 1362 1359
1484 1483 1482 1480 1479 1477 1476 1475 1473 1472 1470 1468 1467 1465 1463 1461 1459 1457 1454 1451 1448 1445 1442 1438 1434 1431 1427 1422 1418 1414 1410 1406 1402 1398 1393 1389 1385 1381 1377 1372 1368 1365 1362 1359
1482 1480 1479 1477 1476 1475 1473 1472 1470 1469 1467 1465 1464 1462 1460 1458 1456 1453 1451 1448 1445 1442 1439 1435 1432 1428 1425 1421 1417 1413 1409 1405 1401 1397 1392 1388 1384 1380 1376 1372 1369 1365 1362 1359
1479 1477 1476 1474 1473 1472 1470 1469 1467 1466 1464 1462 1461 1459 1457 1455 1453 1450 1447 1445 1442 1439 1437 1434 1430 1427 1424 1420 1417 1413 1409 1405 1401 1396 1392 1388 1384 1380 1377 1373 1369 1366 1363 1360